This demonstration page uses our WeatherBlox Daily Observations layout. Learn more.

Left ArrowRight Arrow

34.16533, -84.80231

Hourly Observations for July 31, 2020

Temp ( °F °C ) Dew Point ( °F °C ) Humidity (%) Winds ( mph kmh ) Pressure ( in mb ) Visibility ( mi km ) Precip ( " mm )
12:53 am 00:53 Clear 78 25.6 72 22.2 82 82 VRB 3 6 29.90 1013 10 16 0.00 0.00
1:53 am 01:53 Clear 78 25.6 72 22.2 82 82 Calm 29.89 1012 10 16 0.00 0.00
2:53 am 02:53 Clear 78 25.6 72 22.2 82 82 VRB 3 6 29.88 1012 10 16 0.00 0.00
3:53 am 03:53 Clear 78 25.6 72 22.2 82 82 Calm 29.88 1012 10 16 0.00 0.00
4:53 am 04:53 Clear 77 25 72 22.2 85 85 Calm 29.89 1012 10 16 0.00 0.00
5:53 am 05:53 Mostly Cloudy 78 25.6 72 22.2 82 82 VRB 3 6 29.89 1012 10 16 0.00 0.00
6:53 am 06:53 Sunny 77 25 72 22.2 85 85 VRB 3 6 29.89 1012 10 16 0.00 0.00
7:53 am 07:53 Mostly Sunny 79 26.1 73 22.8 82 82 VRB 3 6 29.91 1013 10 16 0.00 0.00
8:53 am 08:53 Mostly Cloudy 82 27.8 73 22.8 74 74 Calm 29.92 1013 10 16 0.00 0.00
9:21 am 09:21 Partly Cloudy 83 28.3 74 23.3 74 74 VRB 5 7 29.92 1013 10 16 0.00 0.00
9:53 am 09:53 Mostly Sunny 85 29.4 74 23.3 70 70 VRB 7 11 29.92 1013 10 16 0.00 0.00
10:16 am 10:16 Mostly Cloudy 86 30 74 23.3 67 67 Calm 29.92 1013 10 16 0.00 0.00
10:53 am 10:53 Cloudy 85 29.4 74 23.3 70 70 VRB 3 6 29.93 1013 10 16 0.00 0.00
11:34 am 11:34 Partly Cloudy 89 31.7 75 23.9 63 63 Calm 29.92 1013 10 16 0.00 0.00
11:53 am 11:53 Mostly Sunny 89 31.7 75 23.9 63 63 Calm 29.92 1013 10 16 0.00 0.00
12:53 pm 12:53 Mostly Sunny 92 33.3 74 23.3 56 56 VRB 7 11 29.90 1013 10 16 0.00 0.00
1:53 pm 13:53 Mostly Sunny 91 32.8 74 23.3 57 57 VRB 6 9 29.90 1012 10 16 0.00 0.00
2:53 pm 14:53 Mostly Sunny 92 33.3 73 22.8 54 54 VRB 5 7 29.87 1012 10 16 0.00 0.00
3:53 pm 15:53 Sunny 94 34.4 72 22.2 49 49 VRB 6 9 29.85 1011 10 16 0.00 0.00
4:53 pm 16:53 Partly Cloudy 94 34.4 73 22.8 51 51 S 12 19 29.84 1010 10 16 0.00 0.00
5:53 pm 17:53 Sunny 94 34.4 73 22.8 51 51 S 8 13 29.83 1010 10 16 0.00 0.00
6:53 pm 18:53 Mostly Cloudy 89 31.7 72 22.2 57 57 VRB 7 11 29.84 1011 10 16 0.00 0.00
7:53 pm 19:53 Mostly Sunny 83 28.3 69 20.6 63 63 VRB 3 6 29.88 1012 10 16 0.00 0.00
8:53 pm 20:53 Clear 80 26.7 68 20 67 67 Calm 29.90 1013 10 16 0.00 0.00
9:53 pm 21:53 Clear 79 26.1 68 20 69 69 Calm 29.90 1013 10 16 0.00 0.00
10:53 pm 22:53 Clear 77 25 69 20.6 77 77 Calm 29.92 1013 10 16 0.00 0.00
11:53 pm 23:53 Clear 76 24.4 69 20.6 79 79 Calm 29.91 1013 10 16 0.00 0.00

Powered by AerisWeather